Location: *
(57.8420°S, 159.8600°W)
Time: 04:19:21
(UTC+00:00)

SL-16 R/B - Pass Details

Date: 18 May 2021
Orbit: 842 x 847 km, 71.0° (Epoch: 20 June)

Event Time Altitude Azimuth Distance (km) Brightness Sun altitude
Rises 07:13:51 0° 299° (WNW) 3,416 5.8 -37.1°
Reaches altitude 10° 07:16:24 10° 292° (WNW) 2,486 5.0 -37.4°
Enters shadow 07:19:12 27° 275° (W) 1,577 3.9 -37.7°
